Wind_Speed
16 16 17 18 18 18 17 17 17 18 19 19 18 17 16 16 16 15 15 14 13 11 10 10 10 10 9 9 9 8 7 6 5 4 3 3 3 3 4 5 7 9 12 14
16 17 17 18 18 18 17 17 17 17 18 19 19 19 19 19 19 19 20 20 19 17 15 14 14 13 13 12 11 10 9 8 7 6 5 5 5 6 8 9 11 12 14 16
18 18 17 18 18 18 17 17 17 17 18 19 19 21 21 20 20 19 18 18 19 19 18 17 16 15 14 12 12 11 10 9 8 7 7 7 8 9 10 11 13 14 15 17
18 18 19 18 17 17 17 16 17 18 18 19 19 19 20 20 20 19 18 18 17 17 16 16 16 15 14 14 13 12 11 10 10 9 9 9 10 10 11 12 13 15 16 18
19 19 18 17 16 16 15 15 16 17 17 17 17 18 19 19 19 19 18 18 18 17 16 16 16 15 15 14 14 14 13 13 13 12 12 12 12 12 13 13 14 14 15 16
19 19 19 18 16 14 14 14 15 15 16 17 17 18 19 19 18 18 18 17 17 17 17 16 16 16 15 15 15 15 15 15 14 14 14 14 14 14 14 14 14 14 15 15
18 18 18 18 16 15 13 13 13 14 15 16 17 18 18 18 17 17 17 17 17 17 17 17 16 16 16 16 16 17 17 16 16 17 17 17 16 16 16 15 15 15 14 13
17 17 16 16 16 15 13 13 12 13 14 15 16 17 17 17 16 16 16 16 17 17 17 17 17 17 17 17 17 17 18 18 18 19 19 19 19 19 18 17 16 16 15 13
16 16 16 15 15 14 13 12 12 12 13 13 14 15 15 16 16 16 16 16 16 16 16 16 17 17 17 17 18 18 18 19 19 20 20 20 20 20 20 19 18 18 16 15
15 15 15 15 14 14 13 12 11 11 11 12 13 13 14 15 15 15 15 16 16 16 16 16 16 16 16 17 17 18 18 19 20 20 21 21 21 21 21 20 20 19 18 16
14 15 14 15 14 14 13 12 11 10 10 11 11 12 12 13 13 14 15 15 15 15 15 15 15 16 16 17 17 17 18 19 20 20 21 21 22 22 22 21 21 20 19 18
12 13 14 14 14 14 13 12 11 10 9 9 9 10 10 11 12 12 13 14 14 15 15 15 15 16 16 16 16 17 18 18 19 20 20 21 22 22 23 23 22 21 20 20
10 11 12 13 14 13 12 12 11 10 9 8 7 7 8 9 10 10 11 11 12 13 13 14 14 15 15 15 16 16 17 18 18 19 19 20 21 22 23 23 23 23 21 20
9 10 10 12 12 13 12 12 11 10 8 8 7 6 6 6 7 8 8 9 10 11 12 12 13 14 14 15 15 16 17 17 18 18 18 19 20 21 22 22 23 23 22 21
9 9 9 10 11 12 12 12 11 10 8 7 6 6 5 4 4 5 6 7 8 9 10 11 11 12 13 14 14 15 16 17 17 18 18 19 19 20 21 21 22 22 22 22
11 10 9 9 10 10 11 11 10 10 8 7 6 5 5 4 4 4 4 5 6 7 8 9 10 11 11 12 13 14 15 16 16 17 18 18 19 19 20 20 20 20 21 21
13 12 11 10 10 9 9 9 10 10 9 8 7 6 5 5 5 4 4 4 5 5 6 7 8 9 10 11 12 13 14 15 15 16 17 18 18 19 19 19 19 19 19 19
16 15 14 13 11 10 10 9 9 9 9 9 8 8 7 6 6 6 6 6 5 5 5 6 7 7 8 9 10 11 12 13 14 15 15 17 18 18 18 18 18 18 18 18
19 18 17 16 14 13 12 11 10 10 9 9 9 9 8 7 7 7 7 7 6 6 6 6 6 6 7 8 8 9 10 11 12 13 14 15 16 17 17 17 17 16 16 16
22 21 20 19 18 17 15 14 13 12 11 10 10 9 9 8 8 8 8 8 8 8 7 7 7 7 7 7 7 8 8 10 11 12 13 14 14 15 15 15 15 15 15 15
26 25 23 22 21 20 19 18 17 15 14 13 12 11 11 10 9 9 9 9 9 9 9 8 8 8 8 7 7 7 7 8 9 10 11 12 13 13 14 14 14 14 14 13
30 29 27 26 24 23 23 22 21 20 18 17 16 14 13 12 11 11 10 10 10 11 10 10 10 9 9 9 8 8 8 8 8 9 9 10 11 11 12 12 12 12 12 12
35 33 31 30 29 27 26 25 24 23 23 21 20 19 17 16 14 13 12 12 12 12 12 12 12 12 11 11 11 10 9 9 9 9 9 9 9 10 10 10 10 10 10 10
39 37 36 34 33 31 30 29 28 27 26 25 24 24 22 21 19 17 15 14 14 13 13 14 14 14 14 14 13 12 12 11 10 10 10 9 9 9 9 9 9 9 9 9
44 42 41 39 38 36 35 34 32 30 29 29 28 27 26 25 24 22 20 18 17 16 16 15 15 16 16 16 16 15 14 14 13 12 11 11 10 10 9 9 9 8 8 8
49 47 45 44 43 42 40 38 37 35 33 33 32 31 30 29 28 27 25 24 22 20 19 18 17 17 17 17 18 18 17 17 16 15 14 13 12 12 11 10 10 9 9 9
52 51 50 48 47 45 44 43 42 40 39 37 36 35 34 33 33 32 30 29 27 25 24 22 21 20 19 19 19 19 19 19 19 18 17 16 15 14 14 13 12 11 11 10
Wind_Direction
20 19 17 18 20 22 24 24 24 29 35 39 43 47 46 49 53 56 58 62 66 73 82 80 79 75 76 75 74 75 74 85 80 72 67 36 2 330 301 286 276 271 267 266
25 23 21 24 25 26 27 29 32 36 42 45 48 49 50 51 52 55 56 56 57 62 66 68 69 69 67 64 65 63 61 58 48 34 15 353 335 320 310 300 290 284 280 277
26 25 24 27 26 27 29 34 39 43 46 46 48 48 50 50 51 54 57 57 57 56 58 59 61 60 58 56 54 51 46 40 29 17 2 347 334 324 314 305 299 293 288 284
28 28 29 25 25 27 31 38 44 47 48 48 49 48 49 49 49 50 51 53 54 55 55 54 54 53 51 49 46 43 38 31 23 14 3 352 341 332 323 314 306 300 295 290
28 31 30 26 25 28 32 38 42 44 44 45 45 47 48 47 46 47 49 51 51 52 52 51 50 49 47 45 43 41 37 31 25 17 8 359 349 340 333 326 319 312 306 300
25 28 28 27 27 29 32 37 38 41 42 41 42 44 45 44 44 45 46 47 48 48 48 48 48 48 46 45 43 41 37 32 26 20 14 8 2 355 347 339 332 325 317 310
22 24 26 25 27 29 32 33 36 38 40 40 41 42 42 41 43 44 45 45 44 44 44 45 46 48 48 47 45 42 38 34 29 24 20 17 13 8 1 354 347 341 333 325
21 22 24 23 26 30 32 33 35 36 37 39 39 40 41 42 43 43 44 44 44 44 45 47 49 50 50 48 46 42 38 34 30 27 24 21 18 14 10 6 2 357 352 346
22 24 25 27 28 30 31 33 35 35 35 36 37 38 40 42 43 43 44 44 44 45 48 50 51 51 48 46 43 40 35 32 30 28 27 25 22 19 17 15 12 10 7 4
21 22 24 26 26 28 29 31 33 33 34 35 37 40 43 44 44 45 45 46 47 49 50 50 49 47 46 43 42 39 36 33 31 30 28 27 25 23 21 19 18 18 19 19
18 19 21 23 23 24 25 27 31 33 35 37 39 42 44 45 46 46 48 49 51 51 50 49 47 44 41 40 38 36 34 32 31 30 28 27 26 26 25 24 23 23 25 26
10 13 17 19 20 21 23 26 29 31 33 35 38 42 45 47 49 50 50 50 49 49 48 46 43 41 39 37 35 33 31 30 29 28 28 28 27 27 28 28 28 28 30 32
360 6 10 12 14 17 19 20 22 26 29 32 35 39 44 47 48 48 48 47 46 44 43 40 39 37 35 33 32 31 29 27 27 27 27 27 26 26 27 29 30 32 35 37
340 349 357 3 7 10 14 16 17 21 26 29 29 30 35 40 41 42 43 41 39 37 35 33 32 32 31 30 30 30 29 27 27 27 26 26 26 27 28 30 32 35 38 41
318 327 338 347 354 359 3 7 11 13 15 17 16 15 15 18 22 26 29 30 29 27 26 26 27 27 28 28 28 28 28 27 26 26 27 26 27 27 29 31 34 36 38 41
300 306 315 325 336 346 351 356 0 4 4 1 359 358 353 349 350 355 2 8 11 13 16 20 22 23 23 24 24 24 25 26 26 27 27 27 27 28 29 30 33 36 38 40
290 292 296 303 312 323 334 342 348 352 355 352 346 340 331 324 322 325 326 334 347 357 2 8 12 16 17 18 19 20 22 24 25 26 27 26 26 27 28 30 31 34 37 39
285 286 286 287 291 298 306 316 328 337 341 345 342 334 325 317 309 307 309 310 313 325 339 348 355 1 6 9 11 15 18 21 22 23 23 23 24 26 27 29 31 33 34 36
281 281 281 281 280 282 286 292 301 312 321 328 333 332 326 318 310 304 299 300 301 301 308 320 332 341 347 354 359 5 11 14 16 17 18 19 21 23 25 27 29 31 33 35
277 278 277 276 275 274 274 276 281 287 295 304 312 319 319 314 309 305 301 296 294 291 292 298 308 318 326 333 341 349 357 3 7 9 11 14 17 19 21 23 26 28 30 33
273 274 275 274 272 271 270 269 270 273 278 284 291 297 303 305 303 302 301 296 290 286 287 288 292 297 305 313 319 326 334 343 352 359 3 7 10 13 16 19 22 24 27 29
269 270 270 271 270 269 268 267 266 266 268 271 275 280 286 292 295 295 296 293 289 284 282 283 285 287 290 294 300 305 311 319 329 339 348 354 360 4 9 12 15 18 21 23
264 265 266 267 267 266 266 266 265 264 263 264 265 268 272 277 282 285 287 286 285 284 279 276 279 282 285 287 288 291 295 299 305 314 325 334 342 349 355 1 4 8 12 15
261 262 262 263 263 264 263 263 262 262 262 262 261 262 264 267 270 273 276 278 279 279 279 277 276 277 279 281 282 284 286 288 292 295 301 309 317 326 335 343 349 354 358 1
259 259 260 260 260 261 261 261 260 260 260 260 259 259 259 260 262 264 266 268 271 273 274 276 277 276 276 276 276 277 278 280 282 285 288 291 295 300 309 318 327 334 338 341
256 257 258 258 259 259 259 259 259 258 258 258 257 257 257 257 257 258 260 261 263 265 267 269 272 274 274 274 273 273 274 275 276 276 278 281 284 286 289 295 302 309 315 320
255 256 256 257 257 257 257 257 257 257 257 256 256 256 256 255 255 256 256 257 258 260 261 263 265 268 270 272 273 273 272 272 272 272 272 273 275 277 279 282 285 290 296 300
Height
5840 5836 5833 5829 5826 5822 5819 5815 5812 5809 5805 5801 5798 5794 5791 5789 5787 5785 5783 5782 5780 5780 5779 5779 5779 5779 5779 5780 5780 5781 5781 5781 5782 5783 5783 5783 5784 5784 5785 5785 5785 5786 5787 5787
5842 5838 5835 5832 5828 5825 5821 5818 5815 5812 5809 5805 5802 5799 5796 5794 5792 5790 5789 5787 5785 5784 5784 5783 5783 5783 5783 5783 5783 5783 5783 5784 5784 5784 5784 5784 5783 5783 5783 5783 5783 5783 5782 5782
5843 5840 5837 5834 5831 5827 5824 5821 5819 5816 5814 5810 5807 5805 5802 5800 5798 5796 5794 5792 5791 5790 5789 5788 5787 5787 5786 5786 5786 5786 5785 5785 5785 5785 5784 5783 5782 5782 5781 5780 5779 5778 5777 5777
5846 5843 5839 5839 5833 5830 5828 5825 5822 5819 5817 5814 5812 5810 5807 5804 5802 5801 5799 5797 5796 5794 5793 5792 5791 5791 5790 5789 5788 5788 5787 5786 5786 5785 5784 5782 5781 5780 5778 5777 5775 5774 5772 5771
5848 5845 5842 5839 5836 5833 5831 5829 5826 5823 5821 5819 5816 5814 5811 5809 5807 5805 5803 5802 5800 5799 5797 5796 5795 5794 5793 5792 5790 5789 5788 5787 5786 5784 5783 5781 5779 5777 5775 5773 5771 5769 5767 5765
5851 5847 5845 5843 5839 5836 5835 5832 5830 5827 5825 5823 5820 5818 5816 5813 5811 5809 5807 5806 5804 5803 5801 5800 5798 5797 5796 5794 5793 5792 5790 5789 5787 5785 5783 5780 5778 5775 5773 5770 5768 5765 5763 5761
5853 5850 5847 5845 5841 5839 5838 5837 5833 5831 5829 5826 5824 5822 5820 5817 5815 5813 5811 5809 5808 5806 5804 5803 5801 5800 5798 5797 5796 5794 5792 5790 5788 5786 5783 5780 5777 5774 5771 5768 5765 5762 5759 5757
5856 5852 5852 5847 5844 5842 5841 5837 5836 5834 5832 5830 5828 5825 5823 5821 5819 5817 5815 5813 5811 5810 5808 5806 5805 5803 5801 5800 5798 5797 5795 5792 5790 5787 5784 5781 5778 5774 5771 5767 5764 5760 5757 5754
5859 5857 5853 5849 5847 5845 5842 5840 5838 5837 5835 5833 5831 5829 5827 5825 5823 5821 5819 5817 5815 5813 5812 5810 5808 5807 5805 5803 5801 5799 5797 5795 5792 5789 5786 5783 5779 5775 5772 5768 5764 5760 5756 5752
5860 5858 5855 5852 5849 5847 5845 5843 5841 5839 5838 5836 5834 5832 5830 5828 5826 5825 5823 5821 5819 5817 5816 5814 5812 5811 5809 5807 5805 5803 5800 5798 5795 5792 5788 5785 5781 5777 5773 5769 5765 5760 5756 5753
5863 5860 5857 5855 5852 5850 5847 5845 5843 5842 5840 5838 5837 5835 5834 5832 5830 5828 5827 5825 5823 5821 5820 5818 5816 5814 5812 5810 5808 5806 5803 5801 5798 5794 5791 5788 5784 5780 5775 5771 5767 5763 5758 5755
5865 5862 5860 5857 5854 5852 5850 5847 5845 5844 5842 5841 5839 5838 5836 5835 5833 5832 5830 5829 5827 5825 5823 5822 5820 5818 5816 5813 5811 5809 5806 5803 5801 5797 5794 5791 5787 5783 5778 5774 5769 5765 5761 5758
5865 5863 5861 5858 5856 5854 5851 5849 5847 5845 5844 5842 5841 5840 5839 5837 5836 5835 5833 5832 5830 5828 5827 5825 5823 5821 5819 5816 5814 5812 5809 5806 5803 5800 5797 5794 5790 5786 5782 5778 5773 5769 5765 5761
5865 5863 5861 5859 5857 5855 5853 5851 5849 5847 5845 5844 5843 5841 5840 5839 5838 5837 5835 5834 5833 5831 5829 5828 5826 5824 5822 5819 5817 5814 5812 5809 5806 5803 5800 5797 5793 5790 5786 5782 5777 5773 5770 5766
5864 5862 5861 5860 5858 5856 5854 5852 5850 5848 5846 5845 5843 5842 5841 5840 5839 5838 5837 5836 5834 5833 5831 5830 5828 5826 5824 5822 5819 5817 5814 5812 5809 5806 5803 5800 5796 5793 5789 5786 5782 5779 5775 5772
5862 5861 5860 5859 5857 5856 5854 5852 5850 5849 5847 5845 5844 5843 5842 5841 5840 5839 5838 5836 5835 5834 5832 5831 5829 5828 5826 5824 5822 5819 5817 5814 5811 5808 5806 5803 5799 5796 5793 5790 5787 5784 5780 5777
5859 5858 5858 5857 5856 5855 5853 5852 5850 5849 5847 5845 5844 5843 5841 5840 5840 5839 5838 5837 5836 5834 5833 5832 5830 5829 5827 5826 5824 5821 5819 5816 5814 5811 5808 5806 5803 5800 5797 5794 5791 5788 5785 5783
5855 5855 5854 5854 5853 5853 5852 5851 5849 5848 5846 5845 5843 5842 5841 5840 5839 5838 5837 5836 5835 5834 5833 5832 5831 5829 5828 5827 5825 5823 5821 5819 5816 5814 5811 5808 5805 5803 5800 5797 5794 5792 5789 5787
5850 5850 5850 5850 5850 5849 5849 5848 5848 5847 5845 5844 5843 5841 5840 5839 5838 5837 5836 5835 5834 5833 5833 5831 5830 5829 5828 5827 5825 5824 5822 5820 5818 5816 5813 5811 5808 5805 5803 5800 5798 5795 5793 5791
5845 5845 5845 5845 5845 5845 5845 5845 5844 5844 5843 5842 5841 5840 5838 5837 5836 5835 5834 5833 5833 5832 5831 5830 5829 5828 5827 5826 5825 5824 5822 5821 5819 5817 5815 5813 5810 5808 5805 5803 5801 5798 5796 5794
5838 5838 5839 5839 5839 5839 5839 5840 5840 5840 5839 5839 5838 5837 5836 5835 5834 5833 5832 5831 5830 5829 5829 5828 5828 5827 5826 5825 5824 5823 5822 5821 5819 5818 5816 5814 5812 5810 5807 5805 5803 5801 5799 5797
5830 5830 5831 5832 5832 5833 5833 5833 5834 5834 5834 5834 5834 5834 5833 5832 5831 5830 5829 5829 5828 5827 5826 5826 5825 5824 5824 5823 5822 5821 5821 5820 5818 5817 5816 5814 5813 5811 5809 5807 5805 5803 5801 5799
5820 5821 5822 5823 5824 5825 5825 5826 5827 5827 5828 5828 5828 5829 5828 5828 5828 5827 5826 5825 5824 5824 5823 5823 5822 5822 5821 5820 5820 5819 5819 5818 5817 5816 5815 5814 5813 5811 5809 5808 5806 5804 5802 5801
5808 5810 5812 5813 5814 5816 5817 5818 5818 5819 5820 5821 5821 5822 5822 5822 5822 5822 5822 5821 5821 5820 5819 5819 5818 5818 5818 5817 5817 5816 5816 5815 5814 5814 5813 5812 5811 5810 5809 5808 5806 5805 5803 5801
5796 5798 5800 5802 5804 5805 5806 5808 5809 5810 5811 5812 5813 5814 5814 5815 5816 5816 5816 5816 5816 5815 5815 5814 5814 5813 5813 5813 5813 5812 5812 5812 5811 5811 5810 5810 5809 5808 5807 5807 5805 5804 5803 5801
5782 5784 5787 5789 5791 5793 5795 5797 5798 5800 5801 5802 5803 5804 5805 5806 5807 5808 5809 5809 5809 5809 5809 5809 5809 5808 5808 5808 5808 5807 5807 5807 5807 5807 5806 5806 5806 5805 5805 5804 5803 5802 5801 5800
5766 5769 5772 5774 5777 5779 5781 5783 5786 5788 5790 5791 5792 5794 5795 5796 5797 5798 5800 5800 5801 5802 5802 5803 5803 5802 5802 5802 5802 5802 5802 5802 5802 5802 5802 5802 5801 5801 5801 5801 5800 5800 5799 5798